• Em Portugal
  • Lista de países
  • Para 7 dias
  • Temperatura da água
  • Mapas de satélite
  • Mapa do tempo
  • Widgets de tempo
  • user-avatar
    Iniciar Sessão

    Previsão horária em Beldibi

    Hoje, 25 Setembro, Terça-feira

    Tempo Temperatura Precipitação Vento Pressão Humidade
    00:00 +27°C° 0 mm 1 m/s 760 mmHg 49%
    01:00 +27°C° 0 mm 1 m/s 759 mmHg 48%
    02:00 +27°C° 0 mm 1 m/s 759 mmHg 46%
    03:00 +27°C° 0 mm 1 m/s 759 mmHg 45%
    04:00 +27°C° 0 mm 1 m/s 759 mmHg 44%
    05:00 +26°C° 0 mm 1 m/s 759 mmHg 43%
    06:00 +28°C° 0 mm 1 m/s 759 mmHg 39%
    07:00 +30°C° 0 mm 1 m/s 759 mmHg 35%
    08:00 +32°C° 0 mm 1 m/s 759 mmHg 31%
    09:00 +33°C° 0 mm 1 m/s 759 mmHg 29%
    10:00 +35°C° 0 mm 2 m/s 759 mmHg 27%
    11:00 +36°C° 0 mm 2 m/s 759 mmHg 25%
    12:00 +37°C° 0 mm 3 m/s 759 mmHg 25%
    13:00 +37°C° 0 mm 3 m/s 758 mmHg 25%
    14:00 +37°C° 0 mm 4 m/s 758 mmHg 25%
    15:00 +36°C° 0 mm 3 m/s 758 mmHg 28%
    16:00 +35°C° 0 mm 3 m/s 758 mmHg 32%
    17:00 +34°C° 0 mm 3 m/s 758 mmHg 35%
    18:00 +31°C° 0 mm 2 m/s 758 mmHg 41%
    19:00 +30°C° 0 mm 2 m/s 758 mmHg 46%
    20:00 +28°C° 0 mm 1 m/s 759 mmHg 52%
    21:00 +28°C° 0 mm 2 m/s 759 mmHg 51%
    22:00 +28°C° 0 mm 2 m/s 759 mmHg 50%
    23:00 +27°C° 0 mm 2 m/s 759 mmHg 50%

    Amanhã, 26 Setembro, Quarta-feira

    Tempo Temperatura Precipitação Vento Pressão Humidade
    00:00 +27°C° 0 mm 2 m/s 759 mmHg 51%
    01:00 +27°C° 0 mm 2 m/s 759 mmHg 52%
    02:00 +26°C° 0 mm 3 m/s 759 mmHg 54%
    03:00 +26°C° 0 mm 3 m/s 759 mmHg 56%
    04:00 +26°C° 0 mm 4 m/s 759 mmHg 58%
    05:00 +25°C° 0 mm 4 m/s 759 mmHg 60%
    06:00 +26°C° 0 mm 4 m/s 759 mmHg 57%
    07:00 +27°C° 0 mm 4 m/s 759 mmHg 54%
    08:00 +28°C° 0 mm 4 m/s 759 mmHg 51%
    09:00 +29°C° 0 mm 4 m/s 759 mmHg 47%
    10:00 +30°C° 0 mm 4 m/s 759 mmHg 42%
    11:00 +33°C° 0 mm 4 m/s 759 mmHg 38%
    12:00 +33°C° 0 mm 3 m/s 759 mmHg 37%
    13:00 +34°C° 0 mm 3 m/s 759 mmHg 37%
    14:00 +34°C° 0 mm 2 m/s 758 mmHg 36%
    15:00 +32°C° 0 mm 2 m/s 758 mmHg 38%
    16:00 +32°C° 0 mm 2 m/s 758 mmHg 40%
    17:00 +31°C° 0 mm 2 m/s 758 mmHg 42%
    18:00 +30°C° 0 mm 2 m/s 759 mmHg 45%
    19:00 +28°C° 0 mm 2 m/s 759 mmHg 48%
    20:00 +27°C° 0 mm 2 m/s 760 mmHg 51%
    21:00 +26°C° 0 mm 2 m/s 760 mmHg 52%
    22:00 +26°C° 0 mm 3 m/s 760 mmHg 53%
    23:00 +25°C° 0 mm 4 m/s 760 mmHg 55%

    Depois de amanhã, 27 Setembro, Quinta-feira

    Tempo Temperatura Precipitação Vento Pressão Humidade
    00:00 +23°C° 0 mm 4 m/s 760 mmHg 55%
    01:00 +23°C° 0 mm 4 m/s 760 mmHg 56%
    02:00 +22°C° 0 mm 5 m/s 760 mmHg 57%
    03:00 +22°C° 0 mm 5 m/s 761 mmHg 57%
    04:00 +22°C° 0 mm 5 m/s 761 mmHg 57%
    05:00 +22°C° 0 mm 5 m/s 761 mmHg 57%
    06:00 +23°C° 0 mm 5 m/s 761 mmHg 54%
    07:00 +25°C° 0 mm 4 m/s 761 mmHg 51%
    08:00 +26°C° 0 mm 4 m/s 761 mmHg 48%
    09:00 +27°C° 0 mm 4 m/s 761 mmHg 43%
    10:00 +29°C° 0 mm 4 m/s 761 mmHg 38%
    11:00 +31°C° 0 mm 3 m/s 762 mmHg 33%
    12:00 +31°C° 0 mm 3 m/s 761 mmHg 32%
    13:00 +33°C° 0 mm 3 m/s 761 mmHg 31%
    14:00 +33°C° 0 mm 3 m/s 761 mmHg 30%
    15:00 +32°C° 0 mm 2 m/s 761 mmHg 32%
    16:00 +31°C° 0 mm 2 m/s 761 mmHg 34%
    17:00 +31°C° 0 mm 2 m/s 761 mmHg 36%
    18:00 +29°C° 0 mm 2 m/s 761 mmHg 39%
    19:00 +28°C° 0 mm 2 m/s 762 mmHg 42%
    20:00 +27°C° 0 mm 1 m/s 762 mmHg 45%
    21:00 +26°C° 0 mm 1 m/s 762 mmHg 45%
    22:00 +26°C° 0 mm 1 m/s 762 mmHg 45%
    23:00 +26°C° 0 mm 1 m/s 762 mmHg 45%

    28 Setembro, Sexta-feira

    Tempo Temperatura Precipitação Vento Pressão Humidade
    00:00 +25°C° 0 mm 2 m/s 762 mmHg 45%
    01:00 +25°C° 0 mm 2 m/s 762 mmHg 45%
    02:00 +25°C° 0 mm 2 m/s 762 mmHg 46%
    03:00 +24°C° 0 mm 2 m/s 762 mmHg 46%
    04:00 +24°C° 0 mm 2 m/s 762 mmHg 46%
    05:00 +24°C° 0 mm 2 m/s 762 mmHg 47%
    06:00 +25°C° 0 mm 2 m/s 762 mmHg 43%
    07:00 +27°C° 0 mm 2 m/s 762 mmHg 39%
    08:00 +28°C° 0 mm 2 m/s 762 mmHg 36%
    09:00 +30°C° 0 mm 2 m/s 762 mmHg 33%
    10:00 +31°C° 0 mm 2 m/s 762 mmHg 30%
    11:00 +32°C° 0 mm 1 m/s 762 mmHg 28%
    12:00 +34°C° 0 mm 2 m/s 761 mmHg 28%
    13:00 +34°C° 0 mm 2 m/s 761 mmHg 28%
    14:00 +34°C° 0 mm 3 m/s 760 mmHg 28%
    15:00 +33°C° 0 mm 3 m/s 760 mmHg 32%
    16:00 +31°C° 0 mm 3 m/s 760 mmHg 36%
    17:00 +31°C° 0 mm 3 m/s 760 mmHg 40%
    18:00 +29°C° 0 mm 2 m/s 761 mmHg 46%
    19:00 +28°C° 0 mm 2 m/s 761 mmHg 51%
    20:00 +26°C° 0 mm 2 m/s 761 mmHg 56%
    21:00 +26°C° 0 mm 1 m/s 761 mmHg 57%
    22:00 +26°C° 0 mm 1 m/s 761 mmHg 57%
    23:00 +25°C° 0 mm 1 m/s 761 mmHg 58%

    29 Setembro, Sábado

    Tempo Temperatura Precipitação Vento Pressão Humidade
    00:00 +25°C° 0 mm 1 m/s 761 mmHg 58%
    01:00 +25°C° 0 mm 1 m/s 761 mmHg 58%
    02:00 +25°C° 0 mm 1 m/s 761 mmHg 58%
    03:00 +24°C° 0 mm 1 m/s 761 mmHg 57%
    04:00 +24°C° 0 mm 1 m/s 761 mmHg 57%
    05:00 +24°C° 0 mm 1 m/s 761 mmHg 56%
    06:00 +25°C° 0 mm 1 m/s 761 mmHg 51%
    07:00 +27°C° 0 mm 1 m/s 761 mmHg 46%
    08:00 +28°C° 0 mm 1 m/s 761 mmHg 41%
    09:00 +30°C° 0 mm 1 m/s 761 mmHg 39%
    10:00 +31°C° 0 mm 1 m/s 761 mmHg 38%
    11:00 +32°C° 0 mm 2 m/s 761 mmHg 36%
    12:00 +32°C° 0 mm 2 m/s 760 mmHg 38%
    13:00 +33°C° 0 mm 3 m/s 760 mmHg 40%
    14:00 +33°C° 0 mm 4 m/s 759 mmHg 41%
    15:00 +33°C° 0.1 mm 3 m/s 759 mmHg 46%
    16:00 +31°C° 0.1 mm 3 m/s 759 mmHg 50%
    17:00 +30°C° 0.1 mm 3 m/s 759 mmHg 55%
    18:00 +29°C° 0 mm 2 m/s 760 mmHg 61%
    19:00 +27°C° 0 mm 2 m/s 760 mmHg 68%
    20:00 +26°C° 0 mm 1 m/s 761 mmHg 74%
    21:00 +26°C° 0 mm 1 m/s 761 mmHg 75%
    22:00 +25°C° 0 mm 1 m/s 761 mmHg 77%
    23:00 +25°C° 0 mm 1 m/s 761 mmHg 78%

    30 Setembro, Domingo

    Tempo Temperatura Precipitação Vento Pressão Humidade
    00:00 +25°C° 0 mm 1 m/s 761 mmHg 79%
    01:00 +24°C° 0 mm 1 m/s 760 mmHg 80%
    02:00 +24°C° 0 mm 1 m/s 760 mmHg 81%
    03:00 +24°C° 0 mm 1 m/s 760 mmHg 81%
    04:00 +24°C° 0 mm 1 m/s 760 mmHg 81%
    05:00 +24°C° 0 mm 2 m/s 760 mmHg 82%
    06:00 +25°C° 0 mm 2 m/s 761 mmHg 76%
    07:00 +26°C° 0 mm 2 m/s 761 mmHg 71%
    08:00 +27°C° 0 mm 2 m/s 761 mmHg 66%
    09:00 +28°C° 0 mm 2 m/s 761 mmHg 60%
    10:00 +29°C° 0 mm 2 m/s 761 mmHg 54%
    11:00 +30°C° 0 mm 2 m/s 760 mmHg 48%
    12:00 +30°C° 0 mm 3 m/s 760 mmHg 46%
    13:00 +31°C° 0 mm 3 m/s 760 mmHg 45%
    14:00 +32°C° 0 mm 4 m/s 759 mmHg 43%
    15:00 +30°C° 0 mm 4 m/s 760 mmHg 47%
    16:00 +29°C° 0 mm 3 m/s 760 mmHg 51%
    17:00 +29°C° 0 mm 3 m/s 760 mmHg 56%
    18:00 +27°C° 0 mm 2 m/s 760 mmHg 62%
    19:00 +26°C° 0 mm 2 m/s 760 mmHg 69%
    20:00 +25°C° 0 mm 1 m/s 761 mmHg 76%
    21:00 +24°C° 0 mm 1 m/s 761 mmHg 78%
    22:00 +24°C° 0 mm 1 m/s 761 mmHg 79%
    23:00 +24°C° 0 mm 1 m/s 760 mmHg 81%
    Mostrar mais